Christchurch, New Zealand

5:58 AM NZST on June 24, 2017 (GMT +1200)
Christchurch

Weather History for 93780 - March, 2013

Change the Weather History Date:

Friday, March 29, 2013

  Actual Average Record
Temperature  
Mean Temperature 68 °F -  
Max Temperature 80 °F 60 °F - ()
Min Temperature 55 °F 42 °F - ()
Cooling Degree Days 2    
Growing Degree Days 18 (Base 50)    
Moisture  
Dew Point 52 °F    
Average Humidity 71    
Maximum Humidity 100    
Minimum Humidity 23    
Precipitation  
Precipitation 0.00 in - - ()
Sea Level Pressure  
Sea Level Pressure 29.90 in    
Wind  
Wind Speed 7 mph ()    
Max Wind Speed 15 mph    
Max Gust Speed -    
Visibility 6.2 miles    
Events      
T = Trace of Precipitation, MM = Missing Value Source: Averaged Metar Reports

Daily Weather History Graph

Daily Weather History Graph

Search for Another Location

Airport or City:

Trip Planner

Search our weather history database for the weather conditions in past years. The results will help you decide how hot, cold, wet, or windy it might be!

Date:

Astronomy

Mar. 29, 2013 Rise Set
Actual Time 7:42 AM NZDT 7:26 PM NZDT
Civil Twilight 7:14 AM NZDT 7:54 PM NZDT
Nautical Twilight 6:40 AM NZDT 8:27 PM NZDT
Astronomical Twilight 6:07 AM NZDT 9:01 PM NZDT
Moon 8:12 PM NZDT (3/29) 9:30 AM NZDT (3/29)
Length of Visible Light 12h 40m
Length of Day
11h 43m
Full, 97% of the Moon is Illuminated
Mar 29
Full
Apr 3
Last Quarter
Apr 10
New
Apr 19
First Quarter
Apr 26
Full

Hourly Weather History & Observations

Time (NZDT) Temp. Dew Point Humidity Pressure Visibility Wind Dir Wind Speed Gust Speed Precip Events Conditions
12:00 AM 57.2 °F 55.4 °F 94% 30.12 in 6.2 mi NE 9.2 mph - N/A   Mostly Cloudy
1:00 AM 57.2 °F 55.4 °F 94% 30.09 in 6.2 mi NE 8.1 mph - N/A   Mostly Cloudy
2:00 AM 57.2 °F 55.4 °F 94% 30.06 in 6.2 mi NE 8.1 mph - N/A   Mostly Cloudy
3:00 AM 55.4 °F 55.4 °F 100% 30.04 in 6.2 mi NE 5.8 mph - N/A   Mostly Cloudy
4:00 AM 57.2 °F 55.4 °F 94% 30.01 in 6.2 mi ENE 9.2 mph - N/A   Mostly Cloudy
5:00 AM 57.2 °F 53.6 °F 88% 29.98 in 6.2 mi ENE 9.2 mph - N/A   Mostly Cloudy
6:00 AM 55.4 °F 53.6 °F 94% 29.95 in 6.2 mi ENE 11.5 mph - N/A   Mostly Cloudy
7:00 AM 57.2 °F 53.6 °F 88% 29.95 in 6.2 mi ENE 8.1 mph - N/A   Mostly Cloudy
8:00 AM 57.2 °F 55.4 °F 94% 29.92 in 6.2 mi ENE 9.2 mph - N/A   Mostly Cloudy
9:00 AM 57.2 °F 55.4 °F 94% 29.89 in 6.2 mi ENE 11.5 mph - N/A   Mostly Cloudy
10:00 AM 60.8 °F 55.4 °F 82% 29.89 in 6.2 mi ENE 8.1 mph - N/A   Partly Cloudy
11:00 AM 66.2 °F 55.4 °F 68% 29.89 in - East 5.8 mph - N/A   Clear
12:00 PM 69.8 °F 53.6 °F 56% 29.86 in - ENE 3.5 mph - N/A   Clear
1:00 PM 77.0 °F 48.2 °F 36% 29.83 in - West 2.3 mph - N/A   Clear
2:00 PM 80.6 °F 39.2 °F 23% 29.83 in - WNW 10.4 mph - N/A   Clear
3:00 PM 80.6 °F 41.0 °F 24% 29.83 in - WNW 15.0 mph - N/A   Clear
4:00 PM 75.2 °F 55.4 °F 50% 29.83 in - SSW 11.5 mph - N/A   Clear
5:00 PM 75.2 °F 51.8 °F 44% 29.83 in - South 11.5 mph - N/A   Clear
6:00 PM 73.4 °F 50.0 °F 44% 29.83 in - SSW 6.9 mph - N/A   Clear
7:00 PM 71.6 °F 48.2 °F 43% 29.80 in - SSE 1.2 mph - N/A   Clear
8:00 PM 64.4 °F 55.4 °F 73% 29.80 in - East 5.8 mph - N/A   Clear
9:00 PM 60.8 °F 55.4 °F 82% 29.80 in - ESE 2.3 mph - N/A   Clear
10:00 PM 57.2 °F 51.8 °F 82% 29.80 in - ENE 4.6 mph - N/A   Clear
11:00 PM 60.8 °F 48.2 °F 63% 29.80 in - NNW 4.6 mph - N/A   Clear